Location: 相模原市立博物館
(35.5593°N, 139.3931°E)
Time: 14:20:42
(UTC+09:00)

BEESAT 2 - Visible Passes

Search period start: 27 January 2022 00:00
Search period end: 06 February 2022 00:00
Orbit: 498 x 513 km, 64.9° (Epoch: 26 January)

Date Brightness Start Highest point End Pass type
(mag) Time Alt. Az. Time Alt. Az. Time Alt. Az.
27 Jan ? 05:31:03 10° S 05:34:15 26° ESE 05:37:31 10° NE visible
28 Jan ? 05:12:06 10° SSE 05:15:15 24° ESE 05:18:25 10° ENE visible
29 Jan ? 04:53:11 10° SSE 04:56:14 23° ESE 04:59:19 10° ENE visible
30 Jan ? 04:34:14 10° SSE 04:37:12 21° ESE 04:40:11 10° ENE visible
30 Jan ? 06:11:13 10° WSW 06:14:28 25° NW 06:17:44 10° N visible
31 Jan ? 04:17:02 18° SE 04:18:10 20° ESE 04:21:03 10° ENE visible
31 Jan ? 05:52:05 10° WSW 05:55:24 27° NW 05:58:45 10° N visible
01 Feb ? 04:00:23 16° E 04:00:23 16° E 04:01:53 10° ENE visible
01 Feb ? 05:35:14 24° W 05:36:19 28° NW 05:39:44 10° N visible
02 Feb ? 05:17:57 28° NNW 05:17:57 28° NNW 05:20:42 10° N visible
03 Feb ? 05:00:19 19° N 05:00:19 19° N 05:01:39 10° N visible
04 Feb ? 04:42:25 11° N 04:42:25 11° N 04:42:37 10° N visible
